Tracking 19717 objects as of 25-Jun-2019
HD Live streaming from Space Station
objects crossing your sky now

CZ-2C R/B

Track CZ-2C R/B now!
10-day predictions


NORAD ID: 43521
Int'l Code: 2018-054D
Perigee: 483.5 km
Apogee: 599.0 km
Inclination: 35.2 °
Period: 95.3 minutes
Semi major axis: 6912 km
RCS: Unknown
Launch date: June 27, 2018
Source: People's Republic of China (PRC)
Launch site: Xichang Space Center, China (XSC)

Note: This is a ROCKET BODY
aabbcc
Your satellite tracking list
Your tracking list is empty




NASA's NSSDC Master Catalog

Two Line Element Set (TLE):
1 43521U 18054D   19175.45922005 +.00000207 +00000-0 +13430-4 0  9997
2 43521 035.1529 231.8276 0083502 192.4162 167.4492 15.10685418054825
Source of the keplerian elements: AFSPC